Regional Weather Roundup
Issued by NWS

Home | Current Version | Previous Version | Text Only | Print | Product List | Glossary Off
Versions: 1 2 3 4 5 6 7 8 9 10 11 12 13 14 15 16 17 18 19 20 21 22 23 24 25 26 27 28 29 30 31 32 33 34 35 36 37 38 39 40 41 42 43 44 45 46 47 48 49 50

000
ASUS43 KIND 042359
RWRIN

WEATHER ROUNDUP FOR INDIANA
NATIONAL WEATHER SERVICE INDIANAPOLIS IN
800 PM EDT WED MAY 04 2016

NOTE: "FAIR" INDICATES FEW OR NO CLOUDS BELOW 12,000 FEET WITH NO
SIGNIFICANT WEATHER AND/OR OBSTRUCTIONS TO VISIBILITY.

* - STATION DOES NOT REPORT WEATHER SUCH AS PRECIPITATION OR FOG.

+ - STATION NOT QUALITY CONTROLLED BY THE NATIONAL WEATHER SERVICE.
    USE DATA WITH CAUTION...ESPECIALLY DEWPOINT AND RELATIVE
    HUMIDITY OBSERVATIONS.

INZ001>003-010>013-019-020-050100-
NORTHWEST INDIANA

CITY           SKY/WX    TMP DP  RH WIND       PRES   REMARKS
GARY /AIRPORT/ CLOUDY    45  41  87 N12G25    29.84S
RENSSELAER +   CLOUDY    45  37  76 NW5       29.83R

$$

LMZ046-743>745-050100-
SOUTHERN LAKE MICHIGAN

STATION/POSITION TIME  TEMP    WIND        PRES    WAVE
                       AIR SEA DIR/SP/G            HT
                 (UTC) (F)     (DEG/KT/KT) (MB)    (FT)
BURNS HARBOR     2309   44     350/ 16/ 24 1010.2R
MICHIGAN CITY    2300   42     340/ 25/ 28   N/A

$$

INZ004-005-014>016-021>024-050100-
NORTH CENTRAL INDIANA

CITY           SKY/WX    TMP DP  RH WIND       PRES   REMARKS
GOSHEN         LGT RAIN  39  35  86 NW20G26   29.73S
6HR MIN TEMP:  39; 6HR MAX TEMP:  46; 6HR PCP:  0.03;

SOUTH BEND     LGT RAIN  38  36  92 N20G31    29.76F
6HR MIN TEMP:  37; 6HR MAX TEMP:  44; 6HR PCP:  0.17;


$$

INZ006>009-017-018-025>027-050100-
NORTHEAST INDIANA

CITY           SKY/WX    TMP DP  RH WIND       PRES   REMARKS
ANGOLA *+      CLOUDY    39  34  81 NW12      29.68R
FORT WAYNE     CLOUDY    42  35  76 NW17G28   29.72R
6HR MIN TEMP:  42; 6HR MAX TEMP:  51;


$$

INZ028-029-035-036-043>045-051>053-050100-
WEST CENTRAL INDIANA

CITY           SKY/WX    TMP DP  RH WIND       PRES   REMARKS
CRAWFORDSVL +  CLOUDY    47  42  84 NW10      29.81S
6HR MIN TEMP:  45; 6HR MAX TEMP:  54; 6HR PCP:  0.01;

GREENCASTLE +  CLOUDY    46  43  87 N13G29    29.81R FOG
LAFAYETTE      CLOUDY    46  37  71 N12       29.82R
6HR MIN TEMP:  46; 6HR MAX TEMP:  54;

TERRE HAUTE    MOCLDY    53  38  56 N12       29.81R
6HR MIN TEMP:  53; 6HR MAX TEMP:  60;


$$

INZ030>032-037>040-046>048-054>057-064-065-050100-
CENTRAL INDIANA

CITY           SKY/WX    TMP DP  RH WIND       PRES   REMARKS
COLUMBUS       CLOUDY    50  39  66 N21       29.77R
INDIANAPOLIS   MOCLDY    48  39  71 NW9       29.78R
6HR MIN TEMP:  48; 6HR MAX TEMP:  57; 6HR PCP: TRACE;

-EAGLE CREEK   PTCLDY    49  38  65 N15       29.78R
6HR MIN TEMP:  49; 6HR MAX TEMP:  56; 6HR PCP: TRACE;

KOKOMO *+      CLOUDY    45  34  65 NW21G30   29.78R
SHELBYVILLE    CLOUDY    51  37  58 NW21      29.77R
6HR MIN TEMP:  51; 6HR MAX TEMP:  60;


$$

INZ033-034-041-042-049-050-058-059-050100-
EAST CENTRAL INDIANA

CITY           SKY/WX    TMP DP  RH WIND       PRES   REMARKS
MUNCIE         CLOUDY    48  35  60 NW22G31   29.75R
6HR MIN TEMP:  48; 6HR MAX TEMP:  55;


$$

INZ060-061-067>069-081>083-085>088-050100-
SOUTHWEST INDIANA

CITY           SKY/WX    TMP DP  RH WIND       PRES   REMARKS
EVANSVILLE     MOCLDY    58  44  60 N8        29.80S
6HR MIN TEMP:  57; 6HR MAX TEMP:  66; 6HR PCP: TRACE;

HUNTINGBURG *+ CLOUDY    55  41  58 NW18G24   29.79R
6HR MIN TEMP:  55; 6HR MAX TEMP:  64;


$$

INZ062-063-066-070>080-084-089>092-050100-
SOUTH CENTRAL AND SOUTHEAST INDIANA

CITY           SKY/WX    TMP DP  RH WIND       PRES   REMARKS
BLOOMINGTON    MOCLDY    50  41  71 N7        29.79R
6HR MIN TEMP:  50; 6HR MAX TEMP:  61; 6HR PCP: TRACE;

MADISON *+     MOCLDY    52  37  58 NW9G17    29.77R
SEYMOUR +      MOCLDY    54  39  58 N14       29.76R

$$





USA.gov is the U.S. government's official web portal to all federal, state and local government web resources and services.